珠海一号 03D星 (ZHUHAI-1 03D)

导读 | 星芒AI

ZHUHAI-1 03D 是珠海一号卫星星座中的高光谱卫星,主要用于土地利用、环境监测和城市规划等领域。该卫星具备高分辨率和多光谱成像能力,能够提供精准的地表数据。作为03组的第四颗卫星,它于2022年发射,进一步增强了珠海一号星座的数据获取能力和应用范围。

基本信息
目录编号:
44538
目录名称:
ZHUHAI-1 03D
国际标识:
2019-060E
轨道中心:
EARTH
卫星名称:
珠海一号 03D星
卫星全名:
珠海一号 03D星 (ZHUHAI-1 03D)
卫星状态:
在轨 (已飞行2279 天)
发射日期:
2019-09-19 UTC
国别 :
中国 (CN)
星等 :
--
轨道信息
数据来源 国际轨道数据
星历时间: 2025-12-15T06:17:07+0800
20小时前
查看轨道信息
半长轴: 6828.744km
偏心率: 0.0009375
轨道倾角: 97.518°
近地点辐角 252.504°
升交点赤经 127.347°
平近点角 107.518°
近地点: 444.207km
远地点: 457.011km
周期: 93.599分钟
每日圈数: 15.384788
详细信息
平衡模式:
三轴稳定
覆盖范围:
全球
运营商:
珠海欧比特宇航科技股份有限公司
运营商所在国:
中国
制造商(研发单位):
珠海欧比特宇航科技股份有限公司
制造商所在国:
中国
使用方式:
暂无
卫星简介
珠海一号(Zhuhai-1)卫星星座是由珠海欧比特宇航科技股份有限公司发射并运营的商业遥感微纳卫星星座,整个星座由34颗遥感卫星组成,分别是2颗视频试验卫星、10颗视频卫星、10颗高光谱卫星、2颗高分光学卫星、2颗SAR卫星和8颗红外卫星。该卫星仍在工作。
2D轨道图
3D轨道图
轨道高度分析图
轨道倾角分析图
轨道综合分析图
查看轨道综合分析图